Flag for Canada Weather past 2 weeks in Lethbridge, Alberta, Canada

Now
70 °F

Passing clouds.


Feels Like: 70 °F
Forecast: 43 / 72 °F
Wind: 10 mph from East

Location: Lethbridge

Current Time: May 22, 2015 at 8:57:29 PM

Latest Report: May 22, 2015 at 8:00 PM


Visibility: 40 mi

Pressure: 29.95 "Hg

Humidity: 29%

Dew point: 36 °F

Location of LethbridgeLocation

Historic Weather in Lethbridge — Graph

°F

Lethbridge temperature yesterday

Maximum temperature yesterday: 72 °F (at 4:00 PM)
Minimum temperature yesterday: 34 °F (at 6:00 AM)
Average temperature yesterday: 59 °F

Past Weeks' High & Low Weather Summary

 TemperatureHumidityPressure
High73 °F (May 22, 3:00 PM)100% (May 9, 4:00 AM)30.45 "Hg (May 9, 4:00 AM)
Low25 °F (May 9, 5:45 AM)20% (May 21, 7:00 PM)29.84 "Hg (May 16, 2:00 AM)
Average47 °F64%30.15 "Hg
* Reported May 7 7:00 PM — May 22 7:00 PM, Lethbridge, Weather by CustomWeather, © 2015

Note: Actual official high and low records may vary slightly from our data, if they occured in-between our weather recording intervals... More about our weather records

Advertising

Lethbridge weather history for previous 24 hours

 ConditionsComfort  
Time TempWeatherWind HumidityBarometerVisibility
7:00 PM
Fri, May 22
72 °FPassing clouds.8 mph23%29.95 "Hg40 mi
6:00 PM72 °FPassing clouds.5 mph22%29.97 "Hg40 mi
5:00 PM70 °FScattered clouds.8 mph27%29.97 "Hg40 mi
4:00 PM73 °FScattered clouds.6 mph25%29.96 "Hg40 mi
3:00 PM73 °FScattered clouds.13 mph27%29.97 "Hg40 mi
2:00 PM70 °FScattered clouds.2 mph31%29.98 "Hg40 mi
1:00 PM70 °FScattered clouds.8 mph29%29.98 "Hg40 mi
12:00 PM68 °FPassing clouds.10 mph35%29.98 "Hg40 mi
11:00 AM63 °FPassing clouds.3 mph39%30.00 "Hg40 mi
10:00 AM59 °FPassing clouds.5 mph42%29.99 "Hg40 mi
9:00 AM54 °FPassing clouds.No wind54%29.99 "Hg40 mi
8:00 AM50 °FPassing clouds.5 mph58%29.98 "Hg40 mi
7:00 AM43 °FPassing clouds.3 mph81%29.99 "Hg40 mi
6:00 AM36 °FClear.6 mph81%29.99 "Hg40 mi
5:00 AM39 °FClear.2 mph75%29.98 "Hg9 mi
4:00 AM41 °FClear.5 mph66%29.98 "Hg9 mi
3:00 AM41 °FClear.8 mph76%29.98 "Hg9 mi
2:00 AM43 °FClear.8 mph66%29.98 "Hg9 mi
1:00 AM46 °FClear.5 mph57%29.97 "Hg9 mi
12:00 AM45 °FClear.9 mph61%29.97 "Hg9 mi
11:00 PM
Thu, May 21
48 °FClear.10 mph54%29.97 "Hg9 mi
10:00 PM55 °FSunny.9 mph38%29.96 "Hg15 mi
9:00 PM59 °FSunny.8 mph36%29.95 "Hg40 mi
8:00 PM68 °FSunny.9 mph24%29.94 "Hg40 mi
Weather by CustomWeather, © 2015

See weather overviewHow to use our weather pages